Airport Information

KDLS - Columbia Gorge Regional - The Dalles Municipal Airport

KDLS 231053Z AUTO 32013G19KT 10SM CLR 13/11 A2996 RMK AO2 SLP143 T01330106


  • General Information

  • Coordinates: N 45°37'6"/ W 121°10'2"
  • Location: N/A
  • Surveyed Elevation: 247 MSL

Operations

Flow Name Active Runways Conditions

Green background denotes normal operations.


Common Frequencies

Callsign Frequency Position Name

More at the Document Center


Charts